Regional Weather Roundup
Issued by NWS New Orleans/Baton Rouge, LA

Home | Current Version | Previous Version | Graphics & Text | Print | Product List | Glossary On
Versions: 1 2 3 4 5 6 7 8 9 10 11 12 13 14 15 16 17 18 19 20 21 22 23 24 25 26 27 28 29 30 31 32 33 34 35 36 37 38 39 40 41 42 43 44 45 46 47 48 49 50
210
ASUS44 KLIX 190407
RWRLIX
NEW ORLEANS REGIONAL WEATHER ROUNDUP
NATIONAL WEATHER SERVICE NEW ORLEANS LA
1100 PM CDT SAT APR 18 2015

NOTE: "FAIR" INDICATES FEW OR NO CLOUDS BELOW 12,000 FEET WITH NO
      SIGNIFICANT WEATHER AND/OR OBSTRUCTIONS TO VISIBILITY.
      SKY/WX - SKY CONDITION AND SIGNIFICANT WEATHER.
      TMP - AIR TEMPERATURE.     DP    - DEWPOINT TEMPERATURE.
      RH  - RELATIVE HUMIDITY.   PRES  - PRESSURE.
      HI  - HEAT INDEX.          WCI   - WIND CHILL INDEX.

*  THESE STATIONS ARE NOT NWS OR FAA STATIONS AND ARE NOT UNDER
   NWS QUALITY CONTROL.

LAZ038-040-048-061>063-065>067-069-190500-
SOUTHEAST LOUISIANA

CITY           SKY/WX    TMP DP  RH WIND       PRES   REMARKS
N.O. AUDUBON     N/A     71  70  98 MISG        N/A
N.O. INTL ARPT MOCLDY    70  67  90 SE10      29.80S
N.O. LAKEFRONT MOCLDY    73  68  84 S18       29.80F
SLIDELL        CLOUDY    71  70  96 S10       29.79F
BATON ROUGE    MOCLDY    71  69  93 SE8       29.80S FOG
BOOTHVILLE     CLOUDY    70  69  97 SE12      29.83F
BELLE CHASSE   CLOUDY    71  68  90 SE9G18    29.78F
BOGALUSA*        N/A     73  68  86 S9        29.81F
GALLIANO*      CLOUDY    68  67  96 SE3       29.81F
NEW ROADS*     CLOUDY    71  69  93 S5        29.79S
GONZALES*      CLOUDY    72  72 100 S9        29.80R
HAMMOND*       CLOUDY    72  68  88 S10G16    29.81F
HOUMA*         PTCLDY    71  69  94 SE10      29.79F
PORT FOURCHON* NOT AVBL

$$

MSZ070-080>082-190500-
SOUTHERN MISSISSIPPI

CITY           SKY/WX    TMP DP  RH WIND       PRES   REMARKS
MCCOMB         MOCLDY    70  69  97 S8        29.80S
GULFPORT       CLOUDY    72  69  90 S14       29.80F
BILOXI         CLOUDY    73  71  96 S13       29.81F
PASCAGOULA     CLOUDY    71  69  93 S7        29.84F

$$

COASTAL OBSERVATIONS
LAKE AND NEARSHORE STATIONS

STATION/POSITION TIME  TEMP    WIND        PRES    WAVE
                       AIR SEA DIR/SP/G            HT/PER
                 (UTC) (F)     (DEG/KT/KT) (MB)    (FT/S)
PASCAGOULA       0300   74     210/ 14/ 17 1011.6
WAVELAND YACHT   0300   72 74  180/ 16/ 21 1010.5
GRAND ISLE       0300   72 75  150/ 10/ 18 1009.9
SOUTHWEST PASS   0300   69 63  130/ 10/ 13 1012.7
NEW CANAL        0300   71     150/  4/  9 1009.6
SHELL BEACH      0300   72 75  140/ 14/ 19 1009.5

OFFSHORE STATIONS

STATION/POSITION TIME  TEMP    WIND        PRES    WAVE
                       AIR SEA DIR/SP/G            HT/PER
                 (UTC) (F)     (DEG/KT/KT) (MB)    (FT/S)
64 S DAUPHIN ISL 0350   73 74  130/ 14/ 17 1011.5    2/ 3

$$




USA.gov is the U.S. government's official web portal to all federal, state and local government web resources and services.